Probability
0 0 0 0 0 0 0 0 0 0 0 0 3 0 0 3 0 0 3 3 3 0 3 3 6 6 10 6 6 6 6 6 6 6 6 6 6 0 0 0 0 0 0 0
0 0 0 0 0 0 0 0 0 0 0 0 3 3 3 0 0 0 0 3 3 0 3 3 3 6 10 13 10 10 10 6 6 6 6 6 3 0 0 0 0 0 0 0
0 0 0 0 0 0 0 0 0 0 0 3 3 3 0 0 3 0 0 0 3 0 3 3 3 3 6 6 6 6 6 10 10 6 6 6 3 0 0 0 0 0 0 0
0 0 0 0 0 0 0 0 0 0 0 0 0 0 0 3 3 6 3 3 0 0 0 3 3 3 3 3 6 6 6 6 6 10 10 10 3 0 0 0 0 0 0 0
0 0 0 0 0 0 0 0 0 0 3 0 0 6 0 0 3 6 3 0 0 0 0 0 3 3 3 3 6 6 6 6 6 10 13 10 3 3 3 3 3 3 0 0
0 0 0 0 0 0 0 0 0 0 3 0 0 0 0 0 3 0 0 0 0 0 0 0 0 3 3 6 6 10 10 10 10 10 10 10 6 6 3 6 3 3 3 0
0 0 0 0 0 0 0 0 0 0 0 0 0 0 0 3 0 0 0 3 3 0 0 0 0 3 3 3 3 6 13 13 10 6 10 6 6 6 6 6 6 3 3 3
0 0 0 0 0 0 0 0 0 0 0 0 0 0 3 3 3 0 3 3 3 3 3 0 0 3 3 3 3 3 3 3 6 6 6 6 6 6 6 6 6 6 3 3
0 0 0 0 0 0 0 0 0 0 0 0 0 6 3 3 3 3 3 3 3 3 3 0 0 0 3 3 3 0 0 3 3 6 6 6 6 6 6 6 6 6 6 3
0 0 0 0 0 0 3 3 0 0 3 3 6 3 0 0 0 0 3 3 3 3 3 0 0 0 0 0 0 0 0 0 3 3 6 6 6 6 6 3 3 6 6 6
3 0 0 0 0 0 3 3 3 3 0 3 3 0 0 0 0 0 0 0 3 6 3 3 3 0 0 0 0 0 0 0 3 3 3 6 6 6 3 3 3 3 3 3
0 0 0 0 0 0 0 0 0 0 0 0 0 0 0 0 0 0 0 0 0 3 0 0 0 3 0 0 0 0 0 0 3 3 3 3 3 3 3 3 0 0 3 3
0 0 0 0 0 0 0 0 0 0 0 0 0 0 0 0 0 0 0 0 0 3 3 0 0 0 0 3 3 3 3 3 6 3 3 3 3 3 3 0 0 0 0 0
0 0 0 0 0 0 0 0 0 0 0 0 0 0 0 0 0 0 0 0 0 3 3 3 0 0 0 0 0 3 0 0 3 3 3 3 3 3 3 3 3 0 0 0
0 0 0 0 0 0 0 0 0 0 0 0 0 0 0 0 0 0 0 0 0 3 3 3 3 0 0 0 0 0 0 3 3 3 3 3 3 3 3 3 3 3 0 0
0 0 0 0 0 0 0 0 0 0 0 0 0 0 0 0 0 0 0 0 0 3 3 3 3 3 3 0 0 0 0 3 3 3 3 3 3 3 3 3 3 3 0 0
0 0 0 0 0 0 0 0 0 0 0 0 0 0 0 0 0 0 0 0 0 0 3 3 3 3 3 3 3 0 0 3 3 3 3 3 3 3 3 3 3 0 0 0
0 0 0 0 0 0 0 0 0 0 0 0 0 0 0 0 0 0 0 0 0 0 0 3 3 3 3 3 3 3 0 3 3 3 3 3 3 3 3 3 0 0 0 0
0 0 0 0 0 0 0 0 0 0 0 0 0 0 0 0 0 0 0 0 0 0 0 0 3 3 3 3 3 3 0 0 3 3 3 0 0 3 3 0 0 0 0 0
0 0 0 0 0 0 0 0 0 0 0 0 0 0 0 0 0 0 0 0 0 0 0 0 3 3 3 3 0 3 0 0 0 3 3 0 0 0 0 0 0 0 0 0
3 3 0 0 0 0 0 0 0 0 0 0 0 0 0 3 0 0 0 0 0 0 0 0 0 3 3 3 0 3 3 0 0 0 0 0 0 0 0 0 0 0 0 0
0 0 0 0 0 0 0 0 0 0 0 0 0 0 0 3 0 0 0 0 0 0 0 0 0 3 3 3 3 3 3 3 3 0 0 0 0 0 0 0 0 0 0 0
0 0 0 0 0 0 0 0 0 0 0 0 0 0 0 3 0 0 0 0 0 0 0 0 0 0 0 3 3 3 3 3 3 3 0 0 0 0 0 0 0 0 0 0
0 0 0 0 0 0 0 0 0 0 0 0 0 0 0 0 0 0 0 0 0 0 0 0 0 0 0 3 3 3 3 3 0 0 0 0 0 0 0 0 0 0 0 0
0 0 0 0 0 0 0 0 0 0 0 0 0 0 0 0 0 0 0 0 0 0 0 0 0 0 0 0 0 3 3 3 0 0 0 0 0 0 0 0 0 0 0 0
0 0 0 0 0 0 0 0 0 0 0 0 0 0 0 0 0 0 0 0 0 0 0 0 0 0 0 0 0 0 0 0 0 0 0 0 0 0 0 0 0 0 0 0
0 0 0 0 0 0 0 0 0 0 0 0 0 0 0 0 0 0 0 0 0 0 0 0 0 0 0 0 0 0 0 0 0 0 0 0 0 0 0 0 0 0 0 0
Height
5778 5780 5781 5782 5783 5784 5785 5785 5785 5786 5786 5787 5788 5788 5788 5788 5789 5789 5789 5789 5789 5789 5788 5788 5789 5789 5788 5788 5788 5787 5787 5786 5786 5785 5784 5784 5783 5782 5780 5779 5778 5777 5775 5774
5771 5773 5774 5775 5777 5778 5779 5779 5779 5779 5780 5781 5782 5782 5782 5782 5783 5783 5784 5784 5784 5783 5783 5783 5784 5784 5784 5783 5783 5782 5782 5781 5781 5780 5779 5778 5777 5776 5775 5774 5773 5771 5770 5768
5764 5766 5767 5768 5770 5771 5772 5773 5774 5774 5775 5775 5776 5776 5777 5777 5777 5777 5777 5778 5778 5778 5777 5777 5777 5777 5778 5778 5778 5777 5777 5776 5775 5774 5774 5773 5772 5771 5769 5768 5767 5766 5764 5763
5756 5759 5759 5763 5764 5764 5766 5767 5767 5768 5768 5768 5770 5771 5771 5771 5772 5772 5771 5772 5772 5771 5771 5772 5772 5772 5772 5772 5772 5772 5771 5771 5770 5769 5768 5767 5766 5765 5763 5762 5761 5759 5758 5757
5749 5750 5751 5755 5757 5758 5759 5760 5761 5762 5762 5762 5764 5765 5765 5766 5766 5766 5766 5766 5766 5766 5766 5766 5766 5766 5766 5767 5766 5766 5765 5764 5764 5764 5763 5762 5760 5759 5757 5756 5755 5753 5752 5750
5741 5743 5745 5749 5750 5751 5753 5754 5755 5756 5756 5757 5758 5759 5761 5760 5760 5760 5760 5760 5760 5760 5760 5760 5760 5760 5760 5760 5760 5760 5759 5759 5758 5757 5757 5756 5755 5753 5751 5750 5748 5747 5745 5743
5734 5736 5738 5741 5743 5745 5747 5749 5749 5750 5750 5751 5752 5754 5754 5754 5754 5753 5753 5753 5753 5753 5754 5754 5753 5753 5752 5753 5754 5753 5753 5752 5752 5751 5750 5749 5748 5747 5745 5744 5742 5740 5739 5737
5727 5729 5734 5734 5735 5738 5740 5741 5743 5743 5744 5745 5746 5746 5746 5747 5747 5747 5747 5747 5746 5747 5747 5747 5747 5747 5747 5746 5747 5747 5746 5745 5745 5744 5743 5742 5741 5740 5739 5737 5736 5734 5733 5731
5721 5724 5725 5727 5729 5730 5732 5734 5735 5737 5738 5738 5739 5739 5740 5740 5740 5740 5740 5740 5740 5741 5741 5741 5741 5741 5741 5741 5741 5740 5740 5739 5738 5738 5737 5735 5734 5733 5732 5730 5729 5728 5726 5725
5714 5716 5718 5720 5722 5723 5725 5727 5728 5729 5730 5731 5732 5733 5733 5733 5733 5733 5734 5733 5734 5734 5735 5735 5735 5735 5735 5735 5734 5734 5733 5732 5732 5731 5730 5729 5728 5726 5725 5723 5722 5721 5719 5718
5708 5710 5712 5714 5715 5717 5718 5719 5721 5722 5723 5723 5724 5725 5725 5726 5726 5726 5727 5727 5727 5728 5728 5728 5728 5728 5728 5728 5728 5727 5727 5726 5726 5725 5723 5722 5721 5719 5718 5716 5715 5714 5712 5711
5702 5704 5705 5707 5709 5710 5711 5712 5713 5715 5716 5716 5717 5717 5718 5718 5719 5719 5720 5720 5721 5721 5721 5721 5721 5721 5720 5720 5721 5721 5721 5720 5719 5718 5717 5715 5714 5712 5710 5709 5708 5706 5705 5704
5695 5696 5698 5700 5701 5703 5704 5705 5706 5707 5709 5710 5710 5710 5711 5711 5712 5713 5713 5713 5714 5714 5714 5714 5714 5714 5713 5713 5714 5714 5713 5713 5712 5711 5710 5708 5707 5705 5704 5702 5700 5699 5698 5696
5688 5690 5691 5693 5695 5696 5697 5698 5699 5700 5701 5702 5703 5703 5704 5705 5705 5706 5706 5707 5707 5707 5707 5707 5707 5707 5707 5707 5707 5707 5706 5706 5705 5704 5703 5702 5700 5698 5697 5695 5693 5692 5690 5689
5681 5683 5685 5687 5688 5690 5691 5692 5693 5694 5695 5695 5696 5696 5697 5698 5698 5699 5699 5700 5700 5700 5700 5700 5701 5701 5701 5700 5700 5700 5699 5699 5698 5697 5696 5695 5693 5692 5690 5688 5686 5684 5683 5682
5675 5677 5679 5680 5682 5683 5685 5686 5687 5688 5688 5689 5689 5690 5691 5691 5691 5692 5693 5693 5693 5693 5693 5694 5694 5694 5694 5694 5693 5693 5692 5692 5691 5690 5689 5688 5686 5685 5683 5681 5679 5678 5677 5676
5670 5671 5673 5674 5676 5677 5679 5680 5681 5681 5681 5682 5683 5683 5684 5685 5685 5685 5686 5686 5686 5686 5686 5687 5687 5687 5687 5687 5686 5686 5685 5684 5684 5683 5682 5681 5680 5678 5677 5675 5673 5672 5671 5670
5664 5665 5667 5668 5670 5671 5672 5673 5674 5674 5674 5675 5675 5676 5677 5677 5678 5678 5679 5679 5679 5679 5680 5680 5680 5680 5680 5680 5679 5679 5678 5677 5676 5676 5674 5673 5672 5671 5670 5668 5667 5666 5665 5664
5658 5659 5660 5662 5663 5664 5665 5666 5667 5667 5667 5668 5668 5669 5669 5670 5670 5671 5671 5672 5672 5673 5673 5673 5673 5673 5673 5672 5672 5671 5670 5669 5669 5668 5667 5666 5665 5664 5663 5661 5660 5659 5658 5657
5651 5653 5655 5656 5657 5658 5658 5659 5660 5660 5661 5661 5661 5662 5662 5662 5663 5663 5664 5664 5665 5665 5665 5665 5665 5665 5665 5665 5664 5663 5662 5662 5661 5659 5658 5657 5656 5656 5655 5654 5653 5652 5651 5650
5646 5647 5649 5650 5650 5651 5652 5652 5653 5653 5654 5654 5654 5655 5655 5655 5655 5656 5656 5657 5657 5657 5657 5657 5657 5657 5657 5657 5656 5655 5655 5654 5653 5652 5651 5650 5649 5648 5647 5646 5646 5645 5644 5643
5640 5641 5643 5643 5644 5645 5645 5646 5646 5646 5647 5647 5647 5648 5648 5648 5648 5648 5649 5649 5649 5649 5649 5649 5649 5650 5649 5649 5649 5648 5647 5646 5645 5644 5643 5643 5642 5641 5640 5639 5638 5638 5637 5636
5635 5636 5637 5637 5638 5638 5639 5639 5639 5639 5639 5640 5640 5640 5640 5641 5641 5641 5641 5641 5641 5641 5641 5641 5641 5641 5641 5641 5640 5640 5639 5638 5638 5637 5636 5635 5635 5634 5633 5632 5631 5630 5629 5628
5629 5629 5630 5631 5631 5632 5632 5632 5633 5633 5633 5633 5633 5633 5633 5634 5634 5634 5634 5634 5634 5633 5633 5634 5634 5634 5633 5633 5633 5632 5631 5631 5630 5629 5629 5628 5627 5626 5625 5624 5623 5622 5621 5620
5623 5623 5624 5625 5625 5625 5626 5626 5625 5625 5626 5626 5626 5626 5626 5627 5627 5627 5627 5627 5627 5626 5626 5626 5626 5626 5626 5626 5625 5625 5624 5624 5623 5622 5622 5621 5620 5619 5617 5616 5615 5613 5612 5612
5617 5617 5618 5618 5619 5619 5619 5619 5618 5619 5619 5620 5620 5620 5620 5620 5620 5620 5620 5620 5620 5619 5619 5619 5619 5619 5619 5619 5619 5618 5618 5617 5616 5615 5615 5614 5613 5612 5610 5609 5607 5606 5605 5604
5611 5611 5612 5612 5612 5612 5612 5612 5612 5612 5613 5613 5613 5614 5614 5614 5614 5614 5614 5613 5613 5612 5612 5612 5612 5612 5612 5612 5611 5611 5611 5610 5610 5609 5608 5607 5606 5605 5603 5602 5601 5599 5598 5597
Wind_Speed
25 25 25 26 25 24 25 25 24 23 23 22 22 21 22 21 18 17 15 16 17 16 15 15 16 16 15 15 15 15 15 15 15 15 15 16 17 17 17 17 17 18 18 18
26 26 26 26 25 25 25 25 25 25 24 22 23 20 19 19 18 16 16 16 17 17 16 16 16 16 15 15 15 15 15 15 15 15 16 17 17 17 18 18 18 19 19 19
27 27 28 28 26 26 25 24 23 25 24 21 21 20 20 19 17 17 16 17 16 16 16 16 16 16 16 16 15 15 15 16 16 16 17 18 18 18 19 19 20 20 20 20
29 29 30 26 25 25 24 22 22 23 23 21 19 19 19 20 19 19 18 17 17 17 17 18 18 17 16 16 16 16 16 16 16 16 17 18 18 19 20 20 21 21 21 21
30 30 29 27 25 22 21 21 22 21 20 20 18 19 19 19 19 19 19 18 17 18 19 19 18 17 18 17 17 17 18 16 16 17 18 18 18 19 20 20 20 20 21 21
29 29 28 26 24 22 22 23 22 21 20 19 19 19 18 18 18 19 19 18 18 19 19 19 19 18 18 19 18 18 17 17 18 19 19 19 19 19 20 20 20 20 20 21
28 28 27 25 24 23 23 23 22 21 21 21 21 20 19 19 18 18 18 19 19 19 19 19 19 19 19 19 19 19 19 20 19 19 19 19 19 20 20 20 20 20 20 21
26 26 25 25 24 23 23 23 22 21 20 21 22 21 21 20 20 19 19 20 19 18 18 19 19 19 19 18 18 19 19 19 19 20 19 19 19 20 21 21 21 21 20 19
24 24 24 25 25 25 25 24 23 22 21 22 22 21 21 21 19 19 19 19 19 19 19 19 19 20 20 20 20 20 20 20 20 20 20 20 20 21 21 21 21 21 20 20
24 24 24 23 23 24 24 24 23 22 22 22 22 22 21 20 20 21 20 19 20 20 20 20 21 21 21 21 21 20 20 20 20 20 21 21 21 21 21 21 21 21 21 21
23 23 24 24 23 23 23 23 23 22 22 22 22 23 23 22 22 21 20 20 20 20 20 21 21 22 22 22 21 21 20 21 21 21 21 21 20 21 21 21 21 21 21 21
22 23 24 24 23 24 23 23 23 23 22 21 21 21 21 21 21 20 20 20 20 20 21 21 21 21 21 21 21 22 22 21 20 20 21 21 21 21 20 21 22 22 22 21
21 22 23 23 22 22 22 22 22 21 21 21 21 21 20 20 20 20 20 20 20 20 20 20 20 20 20 19 20 20 21 20 20 20 20 21 21 21 20 21 22 22 22 22
21 22 23 22 21 20 20 20 21 21 21 21 21 21 20 19 19 19 19 19 20 20 20 20 20 19 19 19 20 20 20 21 21 21 21 21 21 21 21 21 22 22 22 22
20 21 21 21 20 20 19 20 20 20 20 20 20 20 20 20 20 20 20 19 20 20 20 20 20 21 21 20 20 21 21 21 21 21 21 21 21 21 21 21 21 21 21 21
19 19 19 20 20 20 19 19 18 18 19 20 20 20 20 20 19 19 20 20 20 20 20 21 21 21 22 22 21 22 21 21 21 22 22 22 21 21 21 21 20 20 20 19
18 19 19 19 20 20 20 20 19 18 19 20 20 21 21 21 20 20 21 21 20 19 19 20 21 22 22 22 22 22 22 22 23 23 23 23 23 22 22 22 21 20 20 19
17 18 18 18 19 20 21 21 21 20 19 20 20 21 21 22 22 22 22 21 21 20 20 20 21 22 22 22 22 22 22 23 23 23 23 24 23 23 23 22 21 21 20 19
16 17 18 18 18 19 20 20 21 21 20 20 20 20 20 21 22 22 22 21 21 21 21 22 22 23 23 23 23 23 23 23 23 24 24 24 24 23 23 23 22 22 21 21
16 17 18 18 18 18 18 19 20 20 20 20 20 21 21 20 21 22 22 22 22 22 22 22 23 23 23 23 23 23 23 23 24 24 24 24 23 23 22 22 23 23 23 23
16 17 17 17 18 18 18 18 19 19 20 19 19 19 20 20 20 21 22 22 22 23 23 23 22 22 22 23 23 23 24 24 24 23 23 23 23 23 23 23 23 23 23 23
16 17 17 17 18 18 18 18 18 19 20 20 20 19 19 20 20 22 22 22 21 22 22 22 22 22 23 23 24 24 24 24 24 23 22 22 22 22 23 23 23 22 23 23
16 17 17 17 18 19 18 17 18 18 19 19 20 19 18 19 19 20 20 20 20 21 21 22 22 23 23 23 23 23 23 23 23 23 22 22 23 23 23 23 24 24 24 24
17 17 17 17 18 19 18 18 18 18 18 18 18 18 18 18 18 18 18 19 19 20 21 21 22 22 23 22 23 22 22 22 22 22 22 22 22 23 23 24 25 25 25 25
16 15 15 16 17 17 17 18 18 17 16 16 17 17 17 17 18 18 18 18 18 19 19 20 21 21 21 21 21 20 20 20 21 21 21 21 22 22 23 24 25 25 25 24
16 16 16 15 16 17 18 18 17 17 17 17 16 16 17 17 18 18 18 18 18 18 19 20 20 20 20 20 20 20 20 20 20 19 19 20 21 21 22 23 23 23 23 23
17 18 18 18 18 18 18 18 17 17 17 17 17 17 17 18 18 19 19 19 18 17 17 18 18 18 19 20 20 20 19 20 20 20 21 21 21 22 22 22 21 21 22 22
Wind_Direction
249 250 250 249 251 254 257 260 264 267 268 265 264 264 264 265 267 267 269 271 274 275 269 269 272 277 281 278 276 276 273 271 273 274 277 280 282 283 284 285 286 287 289 287
248 251 251 251 251 252 256 261 264 265 266 265 261 262 266 267 266 264 264 267 270 271 269 267 271 273 277 275 276 275 272 270 274 277 281 283 283 283 282 284 285 286 286 286
247 248 250 250 250 254 257 258 262 262 261 261 258 263 264 265 265 262 267 263 268 269 269 266 266 267 269 271 272 273 272 272 273 276 279 282 286 284 283 284 285 287 288 287
246 247 248 252 254 255 257 258 259 258 258 260 260 264 264 267 269 269 267 264 269 270 268 265 263 262 268 266 268 268 270 273 275 275 277 280 284 285 285 286 286 286 287 287
247 249 251 253 255 255 257 259 257 258 261 261 262 265 264 269 270 271 271 266 265 267 267 264 264 265 267 265 269 268 270 273 273 275 279 283 285 286 287 288 289 289 289 288
246 249 250 252 250 250 255 257 258 262 263 262 263 264 264 263 267 271 271 266 265 268 268 266 265 268 268 267 270 271 271 272 272 275 278 281 283 285 286 288 291 293 293 292
247 248 250 249 247 248 251 256 261 263 263 263 261 263 265 266 268 268 271 268 267 267 266 268 269 270 269 268 270 271 273 273 272 273 276 279 281 283 285 287 289 292 293 293
245 247 246 247 249 248 251 255 259 263 264 264 264 263 265 267 269 270 270 271 267 266 267 268 269 270 270 270 270 272 273 273 271 273 277 280 283 285 285 286 288 289 290 290
247 248 249 247 249 251 253 256 260 262 262 264 265 267 269 268 268 271 273 271 266 265 267 267 268 269 270 271 272 273 271 273 275 277 278 281 284 285 285 285 285 287 288 287
247 248 247 246 249 250 252 255 256 258 260 262 265 269 270 268 267 270 272 270 267 266 267 268 269 270 270 270 272 271 271 274 276 277 280 283 285 285 284 283 284 286 285 283
248 248 249 249 252 253 253 255 258 259 260 263 265 267 266 269 269 269 269 269 267 266 267 269 271 271 269 270 270 271 275 277 277 278 280 281 282 285 285 284 284 284 281 280
249 249 251 252 253 253 254 256 258 259 261 261 262 264 266 267 268 267 268 267 268 268 269 272 272 270 270 268 267 269 273 275 275 279 281 282 282 284 284 284 285 283 282 279
248 249 250 252 252 254 257 258 259 258 259 261 261 263 266 268 268 267 268 266 269 270 269 271 270 268 267 268 271 272 271 272 275 278 282 284 284 284 284 285 286 284 283 281
249 248 249 251 252 257 261 262 264 263 262 262 263 263 264 264 264 265 265 268 270 272 270 269 269 269 268 268 269 271 271 272 274 277 281 282 283 283 285 286 286 285 284 282
247 248 249 251 254 258 260 261 263 263 264 264 263 263 263 265 265 264 266 268 269 270 269 268 267 267 270 271 270 272 273 274 275 277 279 281 283 283 286 288 287 284 282 281
244 246 249 251 253 256 259 259 259 263 264 262 262 262 264 266 267 266 266 269 269 268 267 267 267 268 270 273 275 277 276 276 276 277 279 282 283 283 284 287 288 285 281 279
247 249 250 252 252 254 255 257 260 263 262 261 260 261 262 264 266 266 268 268 267 267 269 269 268 269 271 273 275 276 275 275 274 275 277 279 282 283 283 284 285 283 281 279
250 248 247 250 252 255 257 258 260 264 264 262 261 262 262 262 263 266 268 268 266 265 266 267 268 269 272 274 275 274 274 273 273 274 276 278 280 281 282 282 282 280 278 277
250 251 251 254 255 257 260 261 261 264 267 266 264 264 266 265 264 265 267 267 264 263 265 267 269 271 274 276 275 273 273 275 276 276 277 278 279 280 279 279 279 278 276 275
254 255 258 260 261 261 262 264 265 265 266 268 267 265 265 265 263 264 265 264 264 264 265 268 270 271 273 274 275 274 274 275 278 279 279 279 279 278 277 277 277 276 276 278
260 260 260 260 261 262 263 264 264 265 266 267 268 266 263 262 263 265 266 267 267 266 266 269 270 270 272 274 274 274 275 277 278 279 279 278 278 278 278 277 278 278 277 278
265 265 263 262 264 264 265 265 265 266 266 267 269 268 266 265 265 266 268 269 269 268 268 268 270 271 273 274 274 275 275 275 276 277 278 278 279 279 279 277 278 280 279 279
264 264 265 267 266 265 268 268 267 267 269 269 269 267 268 268 268 268 268 268 269 269 269 269 271 272 273 275 276 276 275 275 275 275 277 278 278 278 279 279 279 280 280 280
265 265 266 268 268 268 269 270 270 270 269 267 265 265 268 269 269 269 267 267 268 269 270 270 271 272 273 274 275 275 275 276 274 274 276 278 279 279 279 280 281 281 281 281
265 264 265 265 265 267 267 270 272 269 267 265 265 265 265 266 268 268 267 267 269 270 271 271 273 274 274 274 275 274 274 276 276 276 277 278 281 283 284 285 284 282 280 281
263 263 264 265 265 266 267 269 270 265 265 266 265 264 264 266 267 268 269 270 270 271 271 272 273 273 274 275 276 276 275 275 276 277 278 280 282 283 285 286 285 283 281 281
268 266 266 266 269 271 270 269 268 267 266 266 267 267 266 267 269 270 271 273 272 271 269 270 271 273 273 274 275 277 278 278 278 277 278 280 281 283 284 283 283 284 285 284